#timestamp,LO_Frequency,Hit,StdDev 
1598070815.7,286047011.8,P
1598070835.5,286047011.3,P
1598070855.3,286047013.0,P
1598070875.2,286047013.3,Y
1598070895.0,286046996.7,P
1598070895.9,286046996.7,N
1598070915.8,286046997.3,N
1598070935.6,286046998.7,N
1598070955.4,286046999.5,N
1598070975.3,286046996.9,N
1598070995.1,286046996.7,N
1598071015.8,286046996.6,N
1598071035.7,286047000.8,N
1598071055.5,286047000.9,N
1598071075.4,286046999.6,N
1598071095.2,286046995.1,N
1598071115.0,286046995.5,N
1598071115.9,286046995.5,N
1598071135.8,286046995.2,N
1598071155.6,286046996.6,N
1598071175.4,286046997.6,N
1598071195.3,286046997.8,N
1598071215.1,286046996.8,N
1598071235.9,286046998.0,N
1598071255.7,286046997.8,N
1598071275.5,286046999.6,N
1598071295.4,286046996.9,N
1598071315.2,286046998.9,N
1598071335.0,286046998.6,N
1598071335.9,286046998.6,N
1598071355.8,286047000.8,N
1598071375.6,286046998.1,N
1598071395.5,286047001.1,N
1598071415.3,286046996.6,N
1598071435.1,286046996.6,N
1598071455.9,286046996.9,N
1598071475.7,286046996.5,N
1598071495.5,286046998.4,N
1598071515.4,286046998.1,N
1598071535.2,286046998.8,N
1598071555.1,286046997.0,N
1598071556.0,286046997.0,N
1598071575.8,286046996.9,N
1598071595.6,286046997.7,N
1598071615.5,286046999.1,N
1598071635.3,286046996.5,N
1598071655.1,286046996.6,N
1598071675.9,286046999.4,N
1598071695.7,286046996.6,N
1598071715.6,286046998.3,N
1598071735.4,286047001.2,N
1598071755.2,286046999.2,N
1598071775.1,286046998.8,N
1598071776.0,286046998.8,N
1598071795.8,286046997.3,N
1598071815.7,286046996.7,N
1598071835.5,286046998.4,N
1598071855.3,286046998.6,N
1598071875.2,286046998.1,N
1598071895.0,286046999.0,N
1598071895.9,286046999.0,N
1598071915.7,286046997.6,N
1598071935.6,286046997.9,N
1598071955.4,286046997.7,N
1598071975.3,286046997.8,N
1598071995.1,286046997.7,N
1598072015.8,286046994.9,Y
1598072035.7,286046998.8,P
1598072055.5,286046998.4,P
1598072075.4,286047001.2,P
1598072095.2,286046999.1,N
1598072115.0,286046999.6,N
1598072115.9,286046999.6,N
1598072135.8,286046999.2,N
1598072155.6,286046997.8,N
1598072175.4,286046996.7,Y
1598072195.3,286046998.8,P
1598072215.1,286046998.7,P
1598072235.9,286046999.0,P
1598072255.7,286046998.1,Y
1598072275.5,286047001.0,P
1598072295.4,286047000.0,N
1598072315.2,286047000.3,N
1598072335.0,286047000.9,N
1598072335.9,286047000.9,N
1598072355.8,286047001.0,N
1598072375.6,286046998.6,N
1598072395.5,286046998.5,N
